Location: Bucaritos
(10.0779°N, 67.0369°W)
Time: 16:42:07
(UTC+00:00)

KM-V1 - Pass Details

Date: 27 June 2022
Orbit: 244 x 3345 km, 31.1° (Epoch: 08 August)

Event Time Altitude Azimuth Distance (km) Brightness Sun altitude
Rises 23:24:31 0° 229° (SW) 2,949 8.4 -8.0°
Reaches altitude 10° 23:27:33 10° 222° (SW) 1,634 7.0 -8.6°
Maximum altitude 23:30:45 37° 152° (SSE) 541 3.9 -9.4°
Enters shadow 23:32:40 13° 83° (E) 991 5.1 -9.8°
